Wind_Speed
87 86 85 82 80 77 75 74 71 69 67 67 67 67 68 70 69 69 71 72 73 73 72 74 73 73 74 75 77 79 81 82 82 84 85 86 87 85 82 80 77 73 69
88 86 85 84 83 80 79 76 74 71 70 69 69 69 69 71 72 72 74 74 74 73 74 72 74 75 76 77 78 78 80 82 84 85 84 85 84 80 77 74 68 57 55
91 85 84 83 82 81 79 76 74 72 71 70 69 70 70 71 74 75 76 76 76 75 74 73 74 73 75 75 76 78 78 81 83 83 84 83 77 70 61 61 59 54 51
88 85 84 83 81 81 80 76 73 73 72 71 70 70 72 73 75 75 74 75 76 74 74 74 75 75 74 76 76 78 79 79 79 79 76 72 69 66 58 54 50 48 47
84 84 86 83 82 80 77 73 72 72 73 74 75 74 73 75 76 75 75 75 74 74 73 72 73 72 74 76 75 76 76 77 75 69 64 60 58 51 50 47 48 50 48
84 82 80 76 76 77 77 75 75 75 75 75 72 74 77 76 75 77 71 70 71 69 69 73 72 72 72 73 72 72 71 66 60 59 53 54 47 39 44 46 50 51 50
76 79 74 73 71 72 69 69 70 69 71 73 72 73 73 72 71 71 71 69 66 68 68 68 68 70 69 68 67 63 59 55 54 57 52 47 44 50 49 49 51 53 55
63 55 61 58 63 64 66 63 64 64 62 61 60 61 60 63 62 64 63 62 62 62 62 63 62 60 59 57 59 58 55 55 53 47 47 46 48 45 49 54 60 59 60
40 33 34 41 53 60 57 57 52 53 53 51 55 56 56 57 58 58 56 56 54 54 56 57 59 56 58 60 59 61 62 53 52 50 52 50 53 53 55 59 61 61 67
44 35 41 37 38 41 41 40 39 37 42 41 43 46 45 49 52 51 51 50 52 54 53 58 58 58 57 61 58 46 55 44 51 58 56 62 62 60 68 67 73 75 74
43 47 47 46 43 31 39 40 32 28 29 28 35 38 44 49 50 55 53 52 54 54 54 56 58 59 60 59 52 55 54 53 61 61 62 61 70 73 77 79 79 80 77
49 57 56 53 49 45 37 39 34 29 27 36 45 38 43 47 49 51 45 49 51 55 59 58 63 62 51 44 51 57 58 61 63 65 66 72 75 79 81 78 73 68 65
53 59 62 55 53 40 46 44 39 44 40 50 51 51 50 48 49 54 61 60 56 54 48 57 54 49 53 55 56 61 66 67 68 71 77 79 78 75 71 67 62 58 58
45 57 58 56 50 60 53 52 48 52 57 59 56 55 52 56 54 52 52 52 52 58 61 51 55 56 61 61 65 68 72 74 74 77 76 77 80 77 67 62 60 62 63
38 51 56 57 61 62 60 53 52 53 58 66 62 53 55 54 60 62 59 62 63 65 57 58 56 59 64 67 68 74 76 79 79 79 78 77 75 64 62 65 66 68 70
39 48 55 61 68 61 59 54 49 55 56 55 57 60 62 64 63 69 69 69 68 65 56 61 62 73 71 71 78 76 76 77 79 77 71 64 63 64 65 66 67 67 69
39 47 61 65 66 60 60 56 49 54 58 59 60 62 60 62 59 68 69 68 61 65 71 73 71 72 73 74 74 73 75 68 65 65 63 64 65 68 68 68 70 72 70
36 46 59 57 61 62 62 60 56 52 54 56 55 55 55 62 63 56 62 54 63 65 67 70 76 73 75 71 71 69 67 64 65 64 66 68 70 71 72 75 75 73 74
32 41 49 56 57 59 61 52 44 46 49 48 50 54 56 56 56 60 63 69 68 70 66 64 70 69 70 70 69 65 63 63 65 67 70 72 75 76 76 74 75 76 79
29 36 45 50 47 52 56 47 45 38 39 50 51 51 52 55 57 58 61 65 70 71 71 71 71 72 73 69 64 63 63 65 69 71 73 75 75 73 74 76 78 80 83
32 32 40 46 55 48 52 57 56 48 51 56 55 56 61 63 67 68 72 72 71 68 67 66 70 69 69 65 61 62 65 69 72 74 77 75 72 75 79 81 83 85 85
33 30 36 46 47 53 55 58 58 61 51 54 59 67 69 65 66 68 66 67 66 69 69 70 68 63 62 61 63 67 69 68 75 77 77 75 80 82 83 86 87 87 87
22 22 27 35 43 52 58 62 62 62 64 65 61 64 64 58 59 62 64 67 67 68 68 64 61 61 63 66 68 70 71 76 77 72 75 81 83 86 89 88 88 89 91
33 29 31 32 34 41 43 42 48 51 57 57 58 60 61 61 62 62 64 65 64 59 58 59 63 64 68 69 72 73 75 78 77 80 78 81 88 90 92 92 92 93 95
31 36 37 35 38 38 43 46 46 46 50 52 54 55 55 57 57 59 59 57 56 59 58 62 66 67 68 72 73 74 76 77 81 85 87 89 87 89 91 94 96 98 100
33 34 34 38 36 37 39 44 46 48 47 47 48 50 52 53 51 54 52 55 57 59 62 67 70 68 72 75 76 76 78 80 82 85 88 90 92 94 94 96 101 101 100
Wind_Direction
243 243 245 247 249 250 252 255 259 260 262 265 268 268 270 270 270 272 273 273 273 274 275 276 276 276 278 277 278 278 279 280 279 280 281 281 282 282 284 284 286 285 287
240 241 244 245 246 248 250 253 257 260 262 265 268 270 270 270 270 269 270 271 270 272 273 272 275 275 276 277 278 279 280 280 279 280 280 284 285 286 288 291 288 285 281
239 240 242 243 245 246 249 250 252 256 260 263 265 267 268 268 268 267 268 269 271 271 273 276 277 277 277 279 279 278 279 278 280 282 283 286 289 291 294 292 291 285 282
240 239 240 242 244 244 246 247 250 252 255 259 261 264 265 266 266 267 269 270 272 274 276 276 276 277 279 280 279 279 280 284 284 286 291 294 291 292 291 290 282 276 273
240 241 241 241 244 246 247 250 252 255 255 256 258 260 262 263 264 268 270 273 274 275 276 276 277 279 280 279 279 282 284 284 290 293 294 296 295 293 291 285 282 275 270
241 239 241 243 245 248 250 249 251 253 254 256 259 260 260 263 265 267 270 271 274 277 278 278 280 279 278 278 282 283 284 289 297 298 300 296 291 290 290 283 284 279 276
240 242 244 245 247 247 250 251 253 255 256 258 261 262 264 267 269 270 271 272 275 277 276 277 277 280 282 281 283 286 286 295 297 294 294 294 292 290 289 287 282 281 283
241 244 245 248 248 250 251 252 254 256 260 263 263 264 264 265 266 269 270 273 274 273 276 278 279 279 280 282 284 288 293 292 292 292 302 294 300 294 288 292 292 288 285
219 224 233 245 248 252 250 252 254 257 261 259 261 264 266 267 267 268 271 271 272 275 275 278 279 278 280 287 290 291 288 289 306 310 301 294 293 289 285 290 287 290 289
211 197 229 225 225 230 240 244 246 253 256 260 261 268 277 275 274 272 273 273 276 278 276 278 277 281 286 290 291 290 305 305 302 298 289 290 290 291 293 293 293 293 294
197 193 206 213 214 214 228 228 231 239 247 260 265 266 273 283 282 283 282 283 279 277 277 282 279 287 292 291 299 303 303 291 299 293 291 288 294 293 296 295 296 293 293
198 199 200 204 198 213 216 224 219 224 251 264 267 267 271 271 280 283 278 278 279 280 282 281 284 289 299 294 295 294 294 295 294 294 294 295 297 298 298 298 294 292 290
204 201 202 201 204 201 223 216 216 234 242 246 252 257 259 268 263 268 278 277 277 282 286 290 293 291 295 295 294 289 291 295 294 297 300 297 298 299 296 296 294 292 294
208 205 209 201 199 214 221 215 228 223 226 239 250 249 255 253 260 266 267 273 275 281 282 290 294 292 295 292 290 289 293 295 297 298 297 297 298 298 298 296 296 297 297
212 205 209 213 213 215 218 223 220 220 226 237 246 246 248 258 262 263 265 271 275 284 289 293 293 291 289 289 291 292 295 299 296 298 300 299 300 298 300 301 299 296 295
213 208 208 210 212 220 215 221 226 225 230 237 243 251 251 252 261 265 266 276 281 282 285 289 282 288 288 292 296 294 297 297 299 300 300 299 299 300 299 298 298 297 295
208 208 205 209 212 217 216 220 228 234 234 236 242 249 255 259 268 268 274 278 283 283 285 284 284 284 291 294 297 297 299 299 299 302 300 299 299 300 301 301 298 295 293
216 204 206 212 216 218 221 224 229 243 241 246 249 254 262 265 266 275 278 278 284 280 282 282 286 290 293 299 298 298 301 300 300 299 300 302 302 302 300 298 296 293 293
225 211 216 218 215 221 224 230 240 248 248 247 254 258 267 269 272 276 270 278 279 280 284 286 293 296 297 299 300 299 299 299 300 301 302 302 301 300 299 298 296 295 295
232 220 218 217 220 225 227 229 231 231 246 250 250 252 258 261 267 270 271 277 284 283 291 292 298 299 300 299 298 298 300 302 301 301 299 298 298 299 299 297 298 299 298
234 232 221 226 223 229 230 232 237 245 254 253 255 262 263 265 268 273 272 279 285 288 292 296 298 299 296 295 297 299 301 300 298 298 298 297 296 298 301 301 300 299 297
243 246 238 227 228 232 236 238 243 244 253 266 262 261 264 271 273 274 280 285 288 291 295 295 296 294 294 297 300 301 299 297 299 300 298 298 299 301 301 301 300 299 299
238 247 245 243 243 246 246 247 248 253 257 260 267 273 276 282 283 283 286 289 290 292 292 294 293 295 299 301 301 300 298 298 298 297 295 295 297 299 299 298 298 299 300
245 240 245 248 256 258 260 262 258 260 263 266 269 273 278 281 282 286 286 288 290 291 292 295 298 301 302 301 299 297 298 299 297 295 293 297 299 300 300 301 301 303 303
245 246 255 260 263 263 262 261 263 266 268 269 273 276 278 280 281 281 283 284 289 293 295 298 298 297 298 300 299 299 298 298 298 299 300 300 299 300 303 304 304 305 305
249 254 259 260 263 263 265 265 266 268 270 272 273 275 276 278 279 282 284 285 291 294 294 294 296 295 300 302 301 301 301 299 300 300 300 303 303 305 305 307 307 306 305
Height
10811 10818 10824 10829 10833 10837 10840 10844 10849 10853 10855 10856 10857 10857 10856 10854 10853 10853 10851 10849 10850 10849 10850 10847 10847 10845 10844 10841 10839 10837 10833 10830 10827 10825 10822 10820 10817 10813 10809 10807 10805 10803 10801
10796 10806 10811 10818 10822 10826 10830 10835 10839 10843 10845 10846 10846 10845 10844 10840 10840 10840 10838 10838 10837 10838 10836 10837 10835 10834 10832 10830 10827 10825 10822 10818 10814 10811 10809 10807 10805 10800 10795 10793 10791 10788 10789
10781 10794 10798 10804 10809 10814 10820 10825 10830 10834 10835 10834 10833 10832 10830 10828 10825 10826 10825 10825 10825 10827 10826 10826 10825 10823 10820 10817 10815 10811 10809 10803 10801 10799 10797 10795 10791 10789 10784 10781 10781 10779 10776
10768 10781 10784 10791 10796 10801 10808 10815 10819 10821 10822 10822 10821 10819 10816 10814 10812 10812 10814 10814 10814 10816 10815 10813 10813 10811 10810 10806 10802 10798 10794 10791 10790 10787 10785 10783 10779 10776 10772 10770 10769 10768 10766
10752 10762 10773 10779 10784 10793 10801 10807 10810 10809 10809 10808 10808 10806 10803 10801 10801 10803 10805 10805 10804 10804 10804 10802 10800 10798 10796 10792 10788 10785 10783 10779 10779 10778 10775 10771 10767 10765 10763 10760 10758 10756 10755
10737 10749 10759 10770 10778 10784 10788 10794 10795 10796 10796 10797 10797 10794 10790 10790 10791 10794 10794 10794 10795 10793 10793 10788 10787 10785 10783 10779 10780 10776 10773 10772 10770 10767 10762 10762 10758 10755 10753 10752 10749 10747 10745
10726 10743 10753 10759 10764 10773 10777 10781 10784 10784 10786 10787 10786 10783 10782 10782 10783 10782 10783 10783 10783 10782 10780 10778 10776 10773 10772 10770 10769 10766 10764 10762 10760 10758 10754 10752 10750 10747 10745 10742 10739 10737 10734
10729 10740 10747 10751 10756 10759 10764 10766 10769 10775 10776 10775 10773 10772 10771 10770 10770 10772 10772 10773 10771 10770 10769 10768 10766 10762 10759 10757 10758 10757 10756 10753 10751 10748 10745 10742 10738 10736 10733 10730 10727 10725 10723
10728 10733 10739 10742 10744 10748 10751 10755 10760 10763 10765 10765 10763 10763 10761 10760 10761 10762 10763 10762 10762 10761 10760 10758 10756 10752 10750 10750 10749 10748 10747 10743 10737 10733 10732 10730 10728 10725 10723 10718 10714 10710 10708
10717 10721 10737 10732 10735 10739 10742 10748 10752 10755 10756 10758 10754 10753 10752 10752 10752 10753 10754 10753 10754 10752 10750 10748 10745 10744 10743 10742 10740 10736 10732 10728 10726 10724 10720 10717 10713 10711 10709 10704 10699 10695 10690
10699 10710 10715 10720 10725 10732 10736 10737 10742 10746 10749 10750 10750 10744 10745 10745 10743 10741 10742 10744 10744 10743 10739 10738 10736 10735 10734 10732 10727 10723 10721 10717 10714 10710 10707 10704 10699 10694 10689 10686 10683 10678 10672
10690 10695 10698 10707 10714 10723 10728 10729 10733 10738 10741 10744 10742 10741 10740 10738 10738 10736 10735 10735 10734 10734 10731 10730 10728 10725 10722 10718 10716 10714 10710 10704 10700 10696 10692 10689 10684 10677 10672 10666 10661 10657 10653
10683 10686 10690 10702 10709 10719 10718 10718 10725 10731 10733 10731 10735 10735 10733 10732 10732 10729 10727 10726 10725 10723 10720 10719 10719 10715 10712 10709 10705 10701 10697 10692 10686 10682 10677 10673 10669 10662 10657 10651 10645 10641 10636
10676 10683 10689 10697 10700 10704 10704 10712 10718 10720 10720 10726 10725 10723 10725 10720 10721 10720 10717 10716 10715 10713 10713 10712 10708 10704 10700 10697 10692 10688 10683 10678 10673 10667 10661 10656 10650 10646 10638 10635 10629 10624 10620
10667 10676 10685 10690 10692 10691 10700 10703 10707 10711 10712 10715 10713 10711 10712 10713 10712 10711 10710 10707 10707 10706 10702 10699 10695 10692 10688 10684 10680 10676 10671 10664 10657 10652 10645 10639 10633 10627 10622 10617 10611 10607 10602
10661 10668 10676 10681 10684 10689 10694 10697 10698 10701 10702 10703 10703 10700 10704 10703 10701 10700 10700 10699 10699 10697 10692 10690 10686 10682 10678 10673 10667 10661 10654 10647 10640 10634 10628 10622 10617 10613 10609 10604 10598 10593 10587
10654 10661 10669 10673 10677 10683 10687 10689 10691 10692 10694 10693 10691 10690 10694 10695 10693 10692 10689 10689 10686 10686 10682 10677 10674 10670 10665 10658 10652 10645 10637 10630 10624 10618 10613 10610 10605 10598 10593 10588 10584 10578 10572
10650 10656 10663 10667 10673 10677 10680 10680 10683 10685 10686 10686 10685 10686 10686 10686 10686 10684 10681 10680 10677 10673 10670 10666 10663 10655 10649 10642 10636 10629 10622 10616 10610 10604 10598 10593 10587 10582 10577 10571 10566 10561 10555
10646 10653 10658 10662 10668 10672 10675 10676 10677 10677 10680 10680 10682 10680 10680 10679 10676 10674 10673 10670 10666 10663 10658 10654 10648 10641 10635 10629 10622 10615 10609 10603 10597 10591 10584 10578 10572 10565 10559 10555 10547 10543 10536
10644 10648 10652 10657 10662 10666 10667 10668 10669 10670 10671 10673 10673 10671 10671 10668 10667 10664 10661 10657 10653 10649 10642 10639 10634 10628 10621 10615 10610 10604 10598 10591 10584 10578 10571 10565 10557 10550 10543 10535 10530 10523 10513
10639 10642 10646 10651 10655 10656 10659 10659 10661 10662 10662 10663 10662 10662 10662 10659 10656 10652 10649 10645 10639 10634 10630 10626 10621 10614 10607 10602 10597 10592 10586 10579 10572 10565 10556 10548 10542 10534 10526 10517 10508 10501 10497
10634 10636 10640 10644 10646 10649 10650 10651 10651 10651 10652 10653 10652 10652 10650 10646 10643 10640 10635 10630 10624 10620 10617 10612 10608 10602 10595 10589 10584 10578 10573 10569 10555 10546 10536 10531 10522 10513 10507 10499 10489 10481 10474
10630 10632 10635 10638 10639 10640 10641 10641 10642 10643 10643 10641 10641 10637 10635 10632 10629 10626 10620 10615 10611 10607 10603 10599 10594 10588 10582 10576 10570 10562 10558 10547 10542 10538 10526 10514 10505 10496 10487 10479 10471 10463 10450
10624 10626 10628 10630 10631 10632 10633 10633 10632 10631 10632 10631 10629 10627 10624 10620 10617 10613 10608 10604 10600 10595 10590 10585 10579 10574 10567 10563 10556 10549 10539 10529 10521 10513 10512 10501 10484 10474 10464 10455 10444 10437 10426
10616 10618 10619 10620 10621 10621 10621 10622 10621 10621 10620 10619 10617 10614 10612 10609 10605 10601 10598 10594 10588 10583 10577 10572 10566 10560 10554 10548 10541 10534 10525 10515 10503 10492 10482 10472 10470 10459 10445 10430 10419 10409 10396
10610 10611 10611 10613 10611 10611 10611 10612 10611 10610 10609 10607 10606 10604 10601 10597 10593 10591 10588 10582 10576 10570 10566 10559 10553 10546 10539 10532 10524 10515 10506 10496 10487 10477 10465 10452 10441 10429 10421 10406 10390 10382 10370